Watertown, NY

5:48 PM EDT on March 28, 2017 (GMT -0400)
Watertown International

Weather History for KART - August, 2013

Change the Weather History Date:

Sunday, August 4, 2013

  Actual Average Record
Temperature  
Mean Temperature 62 °F 69 °F  
Max Temperature 73 °F 79 °F 95 °F (2012)
Min Temperature 50 °F 58 °F 44 °F (1972)
Degree Days  
Heating Degree Days 3 1  
Month to date heating degree days 3 4  
Since 1 June heating degree days 117 137  
Since 1 July heating degree days 14 30  
Cooling Degree Days 0 4  
Month to date cooling degree days 8 19  
Year to date cooling degree days 338 231  
Since 1 June cooling degree days 306 220  
Growing Degree Days 14 (Base 50)    
Moisture  
Dew Point 54 °F    
Average Humidity 73    
Maximum Humidity 96    
Minimum Humidity 49    
Precipitation  
Precipitation 0.01 in 0.10 in 1.37 in (1989)
Month to date precipitation 1.17 0.41  
Year to date precipitation 20.88 19.06  
Sea Level Pressure  
Sea Level Pressure 29.93 in    
Wind  
Wind Speed 6 mph (NW)    
Max Wind Speed 16 mph    
Max Gust Speed 26 mph    
Visibility 10 miles    
Events      
T = Trace of Precipitation, MM = Missing Value Source: NWS Daily Summary

Daily Weather History Graph

Daily Weather History Graph

Search for Another Location

Airport or City:

Trip Planner

Search our weather history database for the weather conditions in past years. The results will help you decide how hot, cold, wet, or windy it might be!

Date:

Astronomy

Aug. 04, 2013 Rise Set
Actual Time 5:55 AM EDT 8:23 PM EDT
Civil Twilight 5:23 AM EDT 8:56 PM EDT
Nautical Twilight 4:42 AM EDT 9:36 PM EDT
Astronomical Twilight 3:56 AM EDT 10:22 PM EDT
Moon 3:54 AM EDT (8/4) 6:45 PM EDT (8/4)
Length of Visible Light 15h 32m
Length of Day
14h 27m
Waning Crescent, 5% of the Moon is Illuminated
Aug 4
Waning Crescent
Aug 6
New
Aug 14
First Quarter
Aug 20
Full
Aug 28
Last Quarter

Hourly Weather History & Observations

Time (EDT) Temp. Dew Point Humidity Pressure Visibility Wind Dir Wind Speed Gust Speed Precip Events Conditions
12:56 AM 57.0 °F 55.0 °F 93% 29.88 in 10.0 mi Calm Calm - N/A   Scattered Clouds
1:56 AM 62.1 °F 57.0 °F 84% 29.87 in 10.0 mi Calm Calm - N/A   Overcast
2:56 AM 57.9 °F 55.0 °F 90% 29.86 in 10.0 mi Calm Calm - N/A   Mostly Cloudy
3:56 AM 57.9 °F 55.0 °F 90% 29.87 in 10.0 mi SW 3.5 mph - N/A   Mostly Cloudy
4:56 AM 59.0 °F 55.9 °F 90% 29.87 in 10.0 mi Calm Calm - N/A   Clear
5:56 AM 57.9 °F 55.0 °F 90% 29.88 in 10.0 mi Calm Calm - N/A   Mostly Cloudy
6:56 AM 60.1 °F 57.0 °F 90% 29.89 in 10.0 mi Calm Calm - N/A   Mostly Cloudy
7:56 AM 62.1 °F 57.9 °F 86% 29.91 in 10.0 mi West 3.5 mph - N/A   Mostly Cloudy
8:56 AM 64.9 °F 57.9 °F 78% 29.91 in 10.0 mi NNW 5.8 mph - N/A   Scattered Clouds
9:14 AM 66.2 °F 57.2 °F 73% 29.92 in 10.0 mi North 5.8 mph - N/A   Mostly Cloudy
9:56 AM 68.0 °F 55.9 °F 65% 29.92 in 10.0 mi NNW 6.9 mph - N/A   Overcast
10:14 AM 69.8 °F 55.4 °F 60% 29.93 in 10.0 mi North 6.9 mph - N/A   Mostly Cloudy
10:23 AM 66.2 °F 55.4 °F 68% 29.93 in 10.0 mi NNW 5.8 mph - N/A   Mostly Cloudy
10:56 AM 66.9 °F 55.9 °F 68% 29.93 in 10.0 mi NNW 10.4 mph - 0.01 in   Mostly Cloudy
11:04 AM 68.0 °F 55.4 °F 64% 29.93 in 10.0 mi North 9.2 mph - N/A   Mostly Cloudy
11:56 AM 69.1 °F 55.0 °F 61% 29.94 in 10.0 mi WNW 12.7 mph - N/A   Mostly Cloudy
12:56 PM 69.1 °F 53.1 °F 57% 29.94 in 10.0 mi WNW 11.5 mph - N/A   Mostly Cloudy
1:56 PM 68.0 °F 52.0 °F 56% 29.94 in 10.0 mi West 10.4 mph - N/A   Mostly Cloudy
2:56 PM 69.1 °F 53.1 °F 57% 29.94 in 10.0 mi WSW 8.1 mph - N/A   Overcast
3:56 PM 70.0 °F 53.1 °F 55% 29.93 in 10.0 mi West 9.2 mph - N/A   Overcast
4:56 PM 72.0 °F 52.0 °F 49% 29.93 in 10.0 mi West 15.0 mph 19.6 mph N/A   Mostly Cloudy
5:56 PM 72.0 °F 52.0 °F 49% 29.93 in 10.0 mi West 11.5 mph - N/A   Mostly Cloudy
6:56 PM 70.0 °F 51.1 °F 51% 29.94 in 10.0 mi West 8.1 mph - N/A   Mostly Cloudy
7:56 PM 66.9 °F 51.1 °F 57% 29.95 in 10.0 mi WNW 4.6 mph - N/A   Scattered Clouds
8:56 PM 66.0 °F 52.0 °F 60% 29.98 in 10.0 mi NNE 9.2 mph - 0.00 in   Overcast
9:56 PM 62.1 °F 54.0 °F 75% 30.00 in 10.0 mi NNE 3.5 mph - N/A   Mostly Cloudy
10:56 PM 57.9 °F 51.1 °F 78% 30.01 in 10.0 mi Calm Calm - N/A   Clear
11:56 PM 52.0 °F 50.0 °F 93% 30.02 in 10.0 mi Calm Calm - N/A   Clear